Findlay, OH

7:34 PM EDT on July 24, 2017 (GMT -0400)
Findlay

Weather History for KFDY - January, 2014

Change the Weather History Date:

Saturday, January 18, 2014

  Actual Average Record
Temperature  
Mean Temperature 10 °F -  
Max Temperature 19 °F 30 °F 59 °F (1949)
Min Temperature 1 °F 17 °F -6 °F (1977)
Degree Days  
Heating Degree Days 55    
Moisture  
Dew Point 11 °F    
Average Humidity 84    
Maximum Humidity 93    
Minimum Humidity 74    
Precipitation  
Precipitation 0.07 in - - ()
Sea Level Pressure  
Sea Level Pressure 29.91 in    
Wind  
Wind Speed 8 mph (South)    
Max Wind Speed 14 mph    
Max Gust Speed -    
Visibility 5 miles    
Events Snow    
Averages and records for this station are not official NWS values.
T = Trace of Precipitation, MM = Missing Value Source: NWS Daily Summary

Daily Weather History Graph

Daily Weather History Graph

Search for Another Location

Airport or City:

Trip Planner

Search our weather history database for the weather conditions in past years. The results will help you decide how hot, cold, wet, or windy it might be!

Date:

Astronomy

Jan. 18, 2014 Rise Set
Actual Time 7:55 AM EST 5:34 PM EST
Civil Twilight 7:25 AM EST 6:04 PM EST
Nautical Twilight 6:52 AM EST 6:38 PM EST
Astronomical Twilight 6:19 AM EST 7:11 PM EST
Moon 8:17 PM EST (1/18) 8:53 AM EST (1/18)
Length of Visible Light 10h 38m
Length of Day
9h 38m
Waning Gibbous, 94% of the Moon is Illuminated
Jan 18
Waning Gibbous
Jan 24
Last Quarter
Jan 30
New
Feb 6
First Quarter
Feb 14
Full

Hourly Weather History & Observations

Time (EST) Temp. Windchill Dew Point Humidity Pressure Visibility Wind Dir Wind Speed Gust Speed Precip Events Conditions
12:53 AM 3.9 °F -8.2 °F -0.0 °F 84% 29.99 in 10.0 mi SSW 6.9 mph - N/A   Scattered Clouds
1:53 AM 3.0 °F -9.3 °F -0.9 °F 84% 29.99 in 10.0 mi SSW 6.9 mph - N/A   Clear
2:53 AM 3.0 °F -12.5 °F -0.9 °F 84% 29.99 in 10.0 mi SSW 10.4 mph - N/A   Clear
3:53 AM 5.0 °F -9.1 °F 1.0 °F 84% 29.99 in 10.0 mi SSW 9.2 mph - N/A   Clear
4:53 AM 3.9 °F -9.4 °F 1.0 °F 88% 29.99 in 10.0 mi SSW 8.1 mph - N/A   Clear
5:53 AM 3.0 °F -10.5 °F -0.0 °F 87% 29.99 in 10.0 mi SSW 8.1 mph - N/A   Clear
6:53 AM 3.0 °F -10.5 °F -0.0 °F 87% 29.99 in 10.0 mi South 8.1 mph - N/A   Clear
7:53 AM 1.9 °F -11.8 °F -0.9 °F 88% 29.99 in 9.0 mi SSW 8.1 mph - N/A   Clear
8:28 AM 5.0 °F -8.1 °F 1.4 °F 85% 29.95 in 9.0 mi SSW 8.1 mph - N/A   Mostly Cloudy
8:53 AM 10.0 °F -2.9 °F 6.1 °F 84% 30.00 in 3.0 mi SSW 9.2 mph - 0.00 in Snow Light Snow
9:02 AM 10.4 °F -1.5 °F 8.6 °F 92% 29.96 in 2.5 mi SSW 8.1 mph - 0.00 in Snow Light Snow
9:41 AM 12.2 °F -0.2 °F 8.6 °F 85% 29.97 in 1.8 mi SW 9.2 mph - 0.00 in Snow Light Snow
9:53 AM 12.9 °F -0.2 °F 9.0 °F 84% 30.01 in 2.0 mi SW 10.4 mph - 0.00 in Snow Light Snow
10:02 AM 12.2 °F -1.0 °F 8.6 °F 85% 29.98 in 1.8 mi SW 10.4 mph - 0.00 in Snow Light Snow
10:11 AM 12.2 °F -0.2 °F 8.6 °F 85% 29.98 in 2.5 mi SSW 9.2 mph - 0.00 in Snow Light Snow
10:26 AM 14.0 °F 1.2 °F 8.6 °F 79% 29.98 in 3.0 mi SSW 10.4 mph - 0.00 in Snow Light Snow
10:36 AM 14.0 °F 0.5 °F 8.6 °F 79% 29.98 in 2.0 mi SSW 11.5 mph - 0.00 in Snow Light Snow
10:49 AM 14.0 °F -0.8 °F 8.6 °F 79% 29.98 in 3.0 mi SW 13.8 mph - 0.00 in Snow Light Snow
10:53 AM 14.0 °F -0.2 °F 8.1 °F 77% 30.02 in 3.0 mi SW 12.7 mph - 0.00 in Snow Light Snow
11:53 AM 16.0 °F 4.4 °F 10.0 °F 77% 29.99 in 6.0 mi SW 9.2 mph - 0.00 in   Haze
12:36 PM 15.8 °F 2.7 °F 10.4 °F 79% 29.93 in 10.0 mi SSW 11.5 mph - N/A   Scattered Clouds
12:53 PM 16.0 °F 2.3 °F 9.0 °F 74% 29.96 in 10.0 mi South 12.7 mph - N/A   Scattered Clouds
1:00 PM 15.8 °F 2.7 °F 10.4 °F 79% 29.92 in 10.0 mi South 11.5 mph - N/A   Mostly Cloudy
1:53 PM 17.1 °F 5.0 °F 10.9 °F 77% 29.94 in 10.0 mi South 10.4 mph - 0.00 in   Overcast
2:53 PM 18.0 °F 6.1 °F 12.0 °F 78% 29.92 in 10.0 mi South 10.4 mph - N/A   Overcast
3:53 PM 19.0 °F 6.8 °F 12.0 °F 74% 29.91 in 10.0 mi South 11.5 mph - N/A   Overcast
4:10 PM 19.4 °F 7.9 °F 12.2 °F 74% 29.87 in 10.0 mi South 10.4 mph - N/A   Scattered Clouds
4:53 PM 19.0 °F 6.8 °F 12.0 °F 74% 29.90 in 10.0 mi SSE 11.5 mph - N/A   Mostly Cloudy
5:02 PM 19.4 °F 8.6 °F 12.2 °F 74% 29.86 in 10.0 mi SSE 9.2 mph - N/A   Overcast
5:53 PM 19.0 °F 8.2 °F 12.9 °F 77% 29.90 in 2.0 mi SSE 9.2 mph - 0.00 in Snow Light Snow
5:56 PM 19.4 °F 6.6 °F 12.2 °F 74% 29.86 in 1.8 mi SSE 12.7 mph - 0.00 in Snow Light Snow
6:36 PM 19.4 °F 10.4 °F 15.8 °F 86% 29.86 in 1.0 mi SSE 6.9 mph - 0.01 in Snow Light Snow
6:53 PM 19.0 °F 11.1 °F 16.0 °F 88% 29.90 in 1.0 mi SSE 5.8 mph - 0.01 in Snow Light Snow
7:02 PM 19.4 °F 11.5 °F 15.8 °F 86% 29.85 in 1.2 mi SE 5.8 mph - 0.00 in Snow Light Snow
7:24 PM 19.4 °F 11.5 °F 15.8 °F 86% 29.85 in 2.5 mi SE 5.8 mph - 0.00 in Snow Light Snow
7:40 PM 19.4 °F 11.5 °F 15.8 °F 86% 29.86 in 1.2 mi SSE 5.8 mph - 0.01 in Snow Light Snow
7:50 PM 19.4 °F 12.8 °F 17.6 °F 93% 29.86 in 0.8 mi SSE 4.6 mph - 0.01 in Snow Light Snow
7:53 PM 19.0 °F 12.3 °F 17.1 °F 92% 29.90 in 0.8 mi SSE 4.6 mph - 0.01 in Snow Light Snow
8:10 PM 19.4 °F 11.5 °F 17.6 °F 93% 29.85 in 0.8 mi SE 5.8 mph - 0.01 in Snow Light Snow
8:39 PM 19.4 °F 10.4 °F 17.6 °F 93% 29.84 in 1.0 mi SE 6.9 mph - 0.03 in Snow Light Snow
8:53 PM 19.9 °F 12.1 °F 17.1 °F 89% 29.87 in 1.0 mi SE 5.8 mph - 0.04 in Snow Light Snow
9:22 PM 19.4 °F 12.8 °F 17.6 °F 93% 29.83 in 1.2 mi SE 4.6 mph - 0.00 in Snow Light Snow
9:53 PM 19.9 °F 12.1 °F 17.1 °F 89% 29.85 in 1.5 mi ESE 5.8 mph - 0.01 in Snow Light Snow
10:14 PM 19.4 °F 10.4 °F 17.6 °F 93% 29.80 in 2.0 mi ESE 6.9 mph - 0.00 in Snow Light Snow
10:27 PM 19.4 °F 11.5 °F 17.6 °F 93% 29.80 in 1.8 mi ESE 5.8 mph - 0.00 in Snow Light Snow
10:49 PM 19.4 °F 10.4 °F 17.6 °F 93% 29.79 in 3.0 mi ESE 6.9 mph - 0.00 in Snow Light Snow
10:53 PM 19.0 °F 11.1 °F 16.0 °F 88% 29.82 in 3.0 mi ESE 5.8 mph - 0.00 in Snow Light Snow
11:08 PM 19.4 °F 11.5 °F 15.8 °F 86% 29.78 in 2.5 mi ESE 5.8 mph - 0.00 in Snow Light Snow
11:16 PM 19.4 °F 12.8 °F 15.8 °F 86% 29.78 in 2.5 mi ESE 4.6 mph - 0.00 in Snow Light Snow
11:48 PM 17.6 °F 9.3 °F 15.8 °F 93% 29.77 in 3.0 mi ESE 5.8 mph - 0.00 in Snow Light Snow
11:53 PM 18.0 °F 11.1 °F 15.1 °F 88% 29.80 in 4.0 mi East 4.6 mph - 0.00 in Snow Light Snow